TimeGMT,TemperatureF,Dew PointF,Humidity,Sea Level PressureIn,VisibilityMPH,Wind Direction,Wind SpeedMPH,Gust SpeedMPH,PrecipitationIn,Events,Conditions,WindDirDegrees,DateUTC
12:20 AM,41.0,37.4,87,29.80,6.2,ENE,11.5,-,N/A,Rain,Light Rain,70,2012-12-20 00:20:00
12:50 AM,41.0,37.4,87,29.80,6.2,ENE,9.2,-,N/A,Rain,Light Rain,70,2012-12-20 00:50:00
1:20 AM,41.0,37.4,87,29.80,6.2,ENE,10.4,-,N/A,Rain,Light Rain,70,2012-12-20 01:20:00
1:50 AM,41.0,39.2,93,29.80,6.2,ENE,10.4,-,N/A,Rain,Light Rain,70,2012-12-20 01:50:00
2:20 AM,41.0,39.2,93,29.77,6.2,ENE,10.4,-,N/A,,Overcast,70,2012-12-20 02:20:00
2:50 AM,42.8,37.4,81,29.77,6.2,East,12.7,-,N/A,,Overcast,80,2012-12-20 02:50:00
3:20 AM,42.8,39.2,87,29.77,6.2,East,11.5,-,N/A,,Overcast,80,2012-12-20 03:20:00
3:50 AM,42.8,39.2,87,29.74,6.2,ENE,13.8,-,N/A,,Overcast,70,2012-12-20 03:50:00
4:20 AM,42.8,39.2,87,29.71,6.2,East,15.0,-,N/A,,Overcast,80,2012-12-20 04:20:00
4:50 AM,42.8,39.2,87,29.71,6.2,ENE,13.8,-,N/A,,Overcast,70,2012-12-20 04:50:00
5:20 AM,42.8,39.2,87,29.71,6.2,ENE,15.0,-,N/A,Rain,Light Rain,70,2012-12-20 05:20:00
5:50 AM,42.8,39.2,87,29.71,6.2,ENE,13.8,-,N/A,Rain,Light Rain,70,2012-12-20 05:50:00
6:20 AM,42.8,39.2,87,29.68,6.2,ENE,12.7,-,N/A,Rain,Light Rain,70,2012-12-20 06:20:00
6:50 AM,42.8,39.2,87,29.68,6.2,East,15.0,-,N/A,Rain,Light Rain,80,2012-12-20 06:50:00
7:20 AM,41.0,39.2,93,29.68,5.0,ENE,12.7,-,N/A,Rain,Light Rain,70,2012-12-20 07:20:00
7:50 AM,42.8,39.2,87,29.65,5.6,ENE,13.8,-,N/A,Rain,Light Rain,70,2012-12-20 07:50:00
8:20 AM,41.0,39.2,93,29.65,5.0,ENE,13.8,-,N/A,Rain,Light Rain,70,2012-12-20 08:20:00
8:50 AM,41.0,39.2,93,29.65,4.3,ENE,13.8,-,N/A,Rain,Light Rain,70,2012-12-20 08:50:00
9:20 AM,41.0,39.2,93,29.65,4.3,ENE,15.0,-,N/A,Rain,Light Rain,70,2012-12-20 09:20:00
9:50 AM,41.0,39.2,93,29.62,5.0,ENE,13.8,-,N/A,Rain,Light Rain,70,2012-12-20 09:50:00
10:20 AM,41.0,39.2,93,29.62,5.0,ENE,15.0,-,N/A,Rain,Light Rain,70,2012-12-20 10:20:00
10:50 AM,41.0,39.2,93,29.62,5.0,ENE,15.0,-,N/A,Rain,Light Rain,70,2012-12-20 10:50:00
11:20 AM,41.0,39.2,93,29.62,3.7,ENE,13.8,-,N/A,Rain,Light Rain,70,2012-12-20 11:20:00
11:50 AM,41.0,39.2,93,29.59,4.3,East,15.0,-,N/A,Rain,Light Rain,80,2012-12-20 11:50:00
12:20 PM,41.0,39.2,93,29.59,3.7,ENE,15.0,-,N/A,Rain,Light Rain,70,2012-12-20 12:20:00
12:50 PM,41.0,39.2,93,29.56,5.0,ENE,15.0,-,N/A,Rain,Light Rain,70,2012-12-20 12:50:00
1:20 PM,41.0,39.2,93,29.56,5.0,ENE,13.8,-,N/A,Rain,Light Rain,70,2012-12-20 13:20:00
1:50 PM,41.0,39.2,93,29.56,5.0,ENE,16.1,-,N/A,Rain,Light Rain,70,2012-12-20 13:50:00
2:20 PM,41.0,39.2,93,29.53,5.0,ENE,16.1,-,N/A,Rain,Light Rain,70,2012-12-20 14:20:00
2:50 PM,41.0,39.2,93,29.53,5.0,ENE,17.3,-,N/A,Rain,Light Rain,70,2012-12-20 14:50:00
3:20 PM,41.0,39.2,93,29.53,5.0,ENE,16.1,-,N/A,Rain,Light Rain,70,2012-12-20 15:20:00
3:50 PM,41.0,39.2,93,29.53,6.2,ENE,16.1,-,N/A,Rain,Light Rain,70,2012-12-20 15:50:00
4:20 PM,41.0,39.2,93,29.53,5.0,ENE,15.0,-,N/A,Rain,Light Rain,70,2012-12-20 16:20:00
4:50 PM,41.0,39.2,93,29.53,6.2,ENE,15.0,-,N/A,Rain,Light Rain,70,2012-12-20 16:50:00
5:20 PM,41.0,39.2,93,29.53,5.6,ENE,15.0,-,N/A,Rain,Light Rain,70,2012-12-20 17:20:00
5:50 PM,41.0,39.2,93,29.53,6.2,ENE,16.1,-,N/A,Rain,Light Rain,70,2012-12-20 17:50:00
6:20 PM,41.0,39.2,93,29.56,5.6,ENE,13.8,-,N/A,Rain,Light Rain,70,2012-12-20 18:20:00
6:50 PM,41.0,37.4,87,29.56,6.2,ENE,16.1,-,N/A,Rain,Light Rain,70,2012-12-20 18:50:00
7:20 PM,41.0,37.4,87,29.56,5.6,ENE,15.0,-,N/A,Rain,Rain,70,2012-12-20 19:20:00
7:50 PM,41.0,37.4,87,29.56,6.2,ENE,13.8,-,N/A,Rain,Light Rain,70,2012-12-20 19:50:00
8:20 PM,41.0,37.4,87,29.56,5.6,ENE,16.1,-,N/A,Rain,Light Rain,70,2012-12-20 20:20:00
8:50 PM,41.0,37.4,87,29.56,5.6,ENE,16.1,-,N/A,Rain,Light Rain,70,2012-12-20 20:50:00
9:20 PM,39.2,37.4,93,29.59,5.6,ENE,15.0,-,N/A,Rain,Light Rain,60,2012-12-20 21:20:00
9:50 PM,39.2,37.4,93,29.59,6.2,ENE,15.0,-,N/A,Rain,Light Rain,70,2012-12-20 21:50:00
10:20 PM,39.2,37.4,93,29.59,5.0,ENE,13.8,-,N/A,Rain,Rain,70,2012-12-20 22:20:00
10:50 PM,39.2,37.4,93,29.59,5.0,ENE,12.7,-,N/A,Rain,Rain,70,2012-12-20 22:50:00
11:20 PM,41.0,37.4,87,29.59,6.2,ENE,12.7,-,N/A,Rain,Rain,70,2012-12-20 23:20:00
11:50 PM,41.0,39.2,93,29.59,6.2,ENE,11.5,-,N/A,Rain,Light Rain,70,2012-12-20 23:50:00